Regional Weather Roundup
Issued by NWS

Home | Current Version | Previous Version | Text Only | Print | Product List | Glossary On
Versions: 1 2 3 4 5 6 7 8 9 10 11 12 13 14 15 16 17 18 19 20 21 22 23 24 25 26 27 28 29 30 31 32 33 34 35 36 37 38 39 40 41 42 43 44 45 46 47 48 49 50
000
ASUS46 KLOX 061412
RWRCA

SOUTHERN CALIFORNIA WEATHER ROUNDUP
NATIONAL WEATHER SERVICE OXNARD CALIFORNIA
700 AM PDT WED MAY 06 2015

NOTE: "FAIR" INDICATES FEW OR NO CLOUDS BELOW 12,000 FEET WITH NO
SIGNIFICANT WEATHER AND/OR OBSTRUCTIONS TO VISIBILITY.

  -  STATIONS PRECEEDED BY AN ASTERISK (*) ARE NOT NWS OR FAA
     STATIONS AND ARE NOT SUBJECT TO NWS AND FAA QUALITY CONTROL.

CAZ041-042-087-061500-
LA AND ORANGE COUNTY COASTAL AREAS


CITY           SKY/WX    TMP DP  RH WIND       PRES   REMARKS
L.A. DOWNTOWN  CLOUDY    60  49  66 CALM      29.90S
L.A. AIRPORT   CLOUDY    59  50  72 SE3       29.91R
LONG BEACH     PTSUNNY   59  51  75 S5        29.90S

CITY           SKY/WX    TMP DP  RH WIND       PRES   REMARKS
AVALON           N/A     55 N/A N/A MISG        N/A
FULLERTON      CLOUDY    61  49  64 CALM      29.89S
*GETTY CENTER    N/A    N/A N/A N/A E1          N/A
HAWTHORNE      CLOUDY    61  50  67 SE3       29.90S
*LEO CARRILLO    N/A     56  49  78 W7          N/A
*LOS ALAMITOS  CLOUDY    59  53  81 SW3       29.90S
*REDONDO BEACH   N/A     58  52  80 CALM      29.90S
SANTA ANA      CLOUDY    60  47  61 SW3       29.90S
STA MONICA APT CLOUDY    60  50  69 CALM      29.90S
*STA MON PIER    N/A     60  53  79 SE1       29.90S
TORRANCE       PTSUNNY   61  52  72 CALM      29.91
*UCLA            N/A     59  48  67 CALM      29.88S

$$

CAZ547-548-048-061500-
LA COUNTY VALLEYS AND INLAND EMPIRE


CITY           SKY/WX    TMP DP  RH WIND       PRES   REMARKS
BURBANK        CLOUDY    58  48  69 SE5       29.89S
VAN NUYS       CLOUDY    58  48  69 SE3       29.90S

CITY           SKY/WX    TMP DP  RH WIND       PRES   REMARKS
CORONA AIRPORT PTSUNNY   56  49  77 CALM      29.91S
*CHATSWORTH      N/A     57  48  71 CALM      29.91R
CHINO          CLOUDY    58  48  69 SW3       29.92R
*CLAREMONT       N/A     52  46  79 W2          N/A
MARCH AFB      CLOUDY    55  47  72 VRB2      29.90S
*NORTHRIDGE      N/A     57  46  67 CALM        N/A
ONTARIO        CLOUDY    56  46  69 W7        29.90S
*PASADENA        N/A     57  50  77 CALM        N/A
POMONA         SUNNY     55  46  71 CALM      29.93
RIVERSIDE      CLOUDY    57  48  72 CALM      29.91R
SAN BERNARDINO CLOUDY    54  50  87 CALM      29.91  FOG
*SAN RAFAEL HI   N/A     52  48  85 CALM        N/A
*WHITEMAN AP   NOT AVBL
*WHITTIER HILL   N/A     56  49  77 CALM        N/A
*WOODLAND HILL   N/A     57  46  67 E1          N/A

$$

CAZ054-055-061500-
LA AND SAN BERNARDINO COUNTY MOUNTAINS


CITY           SKY/WX    TMP DP  RH WIND       PRES   REMARKS
*ACTON           N/A     50  45  83 SW6         N/A
*BIG BEAR AIRP SUNNY     32  19  59 CALM      29.94R
*BIG PINES       N/A     40  28  62 CALM        N/A
*CHILAO          N/A     39  38  95 CALM        N/A
MT WILSON NWS    N/A     37  37 100 MISG        N/A
SANDBERG       FOG       44  41  89 SW13      29.90S VSB<1/4
*WARM SPRINGS    N/A     43  43 100 CALM        N/A

$$

CAZ028-029-059-060-099-061500-
ANTELOPE VALLEY AND SURROUNDING AREAS


CITY           SKY/WX    TMP DP  RH WIND       PRES   REMARKS
LANCASTER      SUNNY     52  41  66 SW18      29.83S
PALMDALE       SUNNY     51  43  74 SW15      29.84S

CITY           SKY/WX    TMP DP  RH WIND       PRES   REMARKS
29 PALMS       MOSUNNY   62  33  33 W13       29.86R
BARSTOW/DAGGET MOSUNNY   59  39  47 W17       29.79R
BISHOP         MOSUNNY   49  32  52 CALM      29.80R
CHINA LAKE     MOSUNNY   56  38  50 CALM      29.76R
EDWARDS AFB    PTSUNNY   51  41  69 S13       29.80S
MOJAVE         FAIR      57  34  41 W12G18    29.80S
NEEDLES        SUNNY     73  36  25 NE5       29.74S
VICTORVILLE    SUNNY     48  43  81 S9        29.84R

$$

CAZ039-040-061500-
VENTURA AND SANTA BARBARA COUNTY COAST


CITY           SKY/WX    TMP DP  RH WIND       PRES   REMARKS
CAMARILLO      CLOUDY    57  50  77 CALM      29.91R
NWS OXNARD       N/A     56  50  79 CALM      29.90S
OXNARD AIRPORT CLOUDY    56  50  80 W3        29.91S
*POINT MUGU    CLOUDY    59  50  72 W8        29.92S
SBA APT/GOLETA MOSUNNY   48  44  86 CALM      29.90S
*SANTA BARBARA   N/A     54  47  77 CALM      29.98S
*VENTURA         N/A     57  51  80 CALM      29.50S

$$

CAZ044-045-061500-
VENTURA COUNTY VALLEYS


CITY           SKY/WX    TMP DP  RH WIND       PRES   REMARKS
*SIMI VALLEY     N/A     54  48  81 CALM      29.88S
*OJAI            N/A     52  47  84 CALM      29.87S
*FILLMORE        N/A     54  50  87 CALM      29.81S

$$

CAZ053-061500-
VENTURA COUNTY MOUNTAINS


CITY           SKY/WX    TMP DP  RH WIND       PRES   REMARKS
*LOCKWOOD VLY    N/A     34  27  75 CALM        N/A
*ROSE VALLEY     N/A     43  45 100 MISG        N/A

$$

CAZ034-035-036-061500-
CENTRAL COAST AND SANTA YNEZ VALLEY


CITY           SKY/WX    TMP DP  RH WIND       PRES   REMARKS
SAN LUIS OBISP CLOUDY    53  44  71 SE5       29.93S
SANTA MARIA    CLOUDY    53  44  71 W8        29.95S

CITY           SKY/WX    TMP DP  RH WIND       PRES   REMARKS
*CAL POLY SLO    N/A     52  46  82 NE3         N/A
*LOMPOC        CLOUDY    52  45  76 NW3       29.96S
*SANTA YNEZ    CLOUDY    50  43  76 NW5       29.94S

$$

CAZ037-038-051-061500-
SAN LUIS OBISPO COUNTY INTERIOR AND CUYAMA VALLEY


CITY           SKY/WX    TMP DP  RH WIND       PRES   REMARKS
*CUYAMA          N/A     44  41  88 S3        29.87S
PASO ROBLES    CLOUDY    49  42  77 N5        29.93S

$$

CAZ032-033-061-061500-
SOUTHERN DESERTS


CITY           SKY/WX    TMP DP  RH WIND       PRES   REMARKS
BLYTHE         MOSUNNY   68  39  34 S9        29.75R
IMPERIAL       MOSUNNY   64  43  46 W13       29.76R
PALM SPRINGS   SUNNY     65  42  43 W12       29.78R
THERMAL        MOSUNNY   65  44  46 NW16      29.74R

$$

ELSEWHERE ACROSS THE WESTERN UNITED STATES AND MEXICO


CITY           SKY/WX    TMP DP  RH WIND       PRES   REMARKS
DENVER, CO     LGT RAIN  50  48  93 SW8       29.71S
GRAND CANYON,  CLOUDY    44  40  85 CALM      29.98S
HONOLULU, HI   PTCLDY    72  63  73 E5        30.01F
KAHULUI, MAUI  CLOUDY    72  61  68 E10       30.02F
LAKE TAHOE, CA SUNNY     31  24  75 S3        29.90S
LAS VEGAS, NV  PTSUNNY   66  43  43 SW8       29.73R
MAMMOTH LAKES, FAIR      32  27  80 CALM      29.92S
MEXICO CITY, M SUNNY     63  54  72 E2        30.31R
PHOENIX, AZ    MOSUNNY   70  45  40 SE7       29.80R
PORTLAND, OR   CLOUDY    48  45  89 CALM      30.12R
RENO, NV       MOSUNNY   48  22  35 N7        29.88S
SALT LAKE CITY PTSUNNY   55  49  80 S8        29.81S
SAN DIEGO, CA  CLOUDY    62  45  53 S6        29.92S
SAN FRANCISCO, PTCLDY    51  45  79 W8        29.88S
SAN JOSE, CA   PTCLDY    48  42  80 SE7       29.90S
SEATTLE, WA    PTSUNNY   46  44  93 CALM      30.13R
TIJUANA, MEX   CLOUDY    59  43  55 CALM      29.93S

$$

STATION/POSITION TIME  TEMP    WIND        PRES    VSBY  WAVE
                       AIR SEA DIR/SP/G                  HT/PER
                 (UTC) (F)     (DEG/KT/KT) (MB)    (MI)  (FT/S)
POINT ARGUELLO B NOT AVBL
WEST SANTA BARBA 1400   53 54  340/ 16/ 19 1013.4S         8/12
POINT CONCEPTION NOT AVBL
EAST SANTA BARBA NOT AVBL
SANTA MONICA BAY 1400   57 58  330/  8/ 10 1013.0R         5/16



USA.gov is the U.S. government's official web portal to all federal, state and local government web resources and services.